This demonstration page uses our WeatherBlox Daily Observations layout. Learn more.

Left ArrowRight Arrow

38.88101, -77.10428

Hourly Observations for May 5, 2020

Temp ( °F °C ) Dew Point ( °F °C ) Humidity (%) Winds ( mph kmh ) Pressure ( in mb ) Visibility ( mi km ) Precip ( " mm )
12:52 am 00:52 Cloudy 56 13.3 36 2.2 47 47 N 16 26 29.97 1015 10 16.0934 0 0
1:52 am 01:52 Cloudy 54 12.2 36 2.2 51 51 N 13 20 30 1016 10 16.0934 0 0
2:52 am 02:52 Cloudy 53 11.7 36 2.2 52 52 NNW 9 15 30 1016 10 16.0934 0 0
3:52 am 03:52 Mostly Cloudy 52 11.1 36 2.2 55 55 N 12 19 29.99 1016 10 16.0934 0 0
4:52 am 04:52 Cloudy 52 11.1 36 2.2 55 55 N 16 26 29.96 1015 10 16.0934 0 0
5:52 am 05:52 Mostly Cloudy 50 10 36 2.2 59 59 NNW 9 15 29.99 1016 10 16.0934 0 0
6:52 am 06:52 Mostly Cloudy 51 10.6 36 2.2 56 56 NNW 6 9 30.02 1017 10 16.0934 0 0
7:52 am 07:52 Mostly Cloudy 52 11.1 36 2.2 55 55 N 9 15 30.01 1016 10 16.0934 0 0
9:52 am 09:52 Mostly Cloudy 56 13.3 35 1.7 46 46 NNE 6 9 30 1016 10 16.0934 0 0
10:52 am 10:52 Cloudy 56 13.3 33 0.6 42 42 E 5 7 30.01 1016 10 16.0934 0 0
11:52 am 11:52 Cloudy 57 13.9 35 1.7 44 44 VRB 6 9 30.01 1016 10 16.0934 0 0
12:52 pm 12:52 Cloudy 57 13.9 35 1.7 44 44 SE 5 7 29.96 1015 10 16.0934 0 0
1:52 pm 13:52 Cloudy 58 14.4 34 1.1 41 41 Calm 29.96 1015 10 16.0934 0 0
2:52 pm 14:52 Cloudy 58 14.4 36 2.2 44 44 S 6 9 29.94 1014 10 16.0934 0 0
3:52 pm 15:52 Cloudy 57 13.9 38 3.3 49 49 SSE 8 13 29.91 1013 10 16.0934 0 0
4:52 pm 16:52 Cloudy 58 14.4 39 3.9 50 50 S 8 13 29.91 1013 10 16.0934 0 0
5:52 pm 17:52 Cloudy 57 13.9 41 5 55 55 S 7 11 29.89 1012 10 16.0934 0 0
6:52 pm 18:52 Cloudy 56 13.3 41 5 57 57 S 7 11 29.87 1012 10 16.0934 0 0
7:52 pm 19:52 Cloudy with Rain 53 11.7 44 6.7 72 72 S 7 11 29.88 1012 5 8.0467 0.02 0.508
8:52 pm 20:52 Cloudy with Rain 50 10 45 7.2 83 83 SW 7 11 29.9 1013 6 9.65604 0.05 1.27
9:52 pm 21:52 Cloudy with Light Rain 49 9.4 47 8.3 93 93 WSW 6 9 29.91 1013 6 9.65604 0.09 2.286
10:44 pm 22:44 Cloudy 50 10 46 7.8 86 86 Calm 29.91 1013 10 16.0934 0.03 0.762
10:48 pm 22:48 Cloudy with Light Rain 50 10 46 8 88 88 Calm 29.91 1013 10 16.0934 0.03 0.762
10:52 pm 22:52 Cloudy with Light Rain 50 10 47 8.3 89 89 Calm 29.91 1013 10 16.0934 0.03 0.762
11:26 pm 23:26 Cloudy with Drizzle 50 10 47 8.3 89 89 Calm 29.9 1013 6 9.65604 0.001 0.001
11:52 pm 23:52 Cloudy with Drizzle 50 10 47 8.3 89 89 E 5 7 29.89 1012 7 11.26538 0.001 0.001

Powered by AerisWeather